Home   Weather   Kuching   Past weeks

Flag for Malaysia Past Weather in Kuching, Malaysia — Yesterday and Last 2 Weeks

Now
75 °F

Partly cloudy.


Feels Like: 74 °F
Forecast: 76 / 93 °F
Wind: 1 mph from East

Location: Kuching Airport

Current Time: Jan 19, 2017 at 12:31:41 am

Latest Report: Jan 19, 2017 at 12:00 am


Visibility: N/A

Pressure: 29.89 "Hg

Humidity: 94%

Dew Point: 73 °F

Location of KuchingLocation

Past Weather in Kuching — Graph

°F

Kuching Temperature Yesterday

Maximum temperature yesterday: 90 °F (at 12:30 pm)
Minimum temperature yesterday: 73 °F (at 5:30 am)
Average temperature yesterday: 78 °F

High & Low Weather Summary for the Past Weeks

 TemperatureHumidityPressure
High93 °F (Jan 11, 2:30 pm)100% (Jan 4, 12:30 am)29.89 "Hg (Jan 4, 12:30 am)
Low73 °F (Jan 17, 12:00 am)49% (Jan 14, 2:30 pm)29.65 "Hg (Jan 7, 3:00 pm)
Average81 °F86%29.78 "Hg
* Reported Jan 3 11:00 pm — Jan 18 11:30 pm, Kuching, Weather by CustomWeather, © 2017

Note: Actual official high and low records may vary slightly from our data, if they occured in-between our weather recording intervals... More about our weather records

Advertising

Kuching Weather History for the Previous 24 Hours

Scroll right to see more
 ConditionsComfort  
Time TempWeatherWind HumidityBarometerVisibility
11:30 pm
Wed, Jan 18
75 °FPartly cloudy.3 mph100%29.89 "HgN/A
11:00 pm75 °FPartly cloudy.3 mph94%29.89 "HgN/A
10:30 pm75 °FPartly cloudy.1 mph100%29.89 "HgN/A
10:00 pm75 °FPartly cloudy.No wind100%29.89 "HgN/A
9:30 pm75 °FPartly cloudy.2 mph100%29.89 "HgN/A
9:00 pm75 °FPartly cloudy.2 mph100%29.89 "HgN/A
8:30 pm75 °FPartly cloudy.3 mph100%29.86 "HgN/A
8:00 pm77 °FPartly cloudy.3 mph89%29.86 "HgN/A
7:30 pm77 °FLight rain. Partly cloudy.5 mph89%29.83 "HgN/A
7:00 pm77 °FLight rain. Partly cloudy.5 mph94%29.83 "HgN/A
6:30 pm77 °FBroken clouds.8 mph94%29.83 "HgN/A
6:00 pm77 °FBroken clouds.7 mph94%29.80 "HgN/A
5:30 pm77 °FBroken clouds.8 mph94%29.80 "Hg5 mi
5:00 pm77 °FThunderstorms. Broken clouds.7 mph94%29.80 "Hg2 mi
4:30 pm77 °FThunderstorms. Broken clouds.5 mph94%29.80 "Hg1 mi
4:00 pm77 °FStrong thunderstorms. Broken clouds.12 mph94%29.80 "Hg1 mi
3:30 pm82 °FThunderstorms. Broken clouds.12 mph79%29.80 "HgN/A
3:00 pm88 °FBroken clouds.6 mph70%29.77 "HgN/A
2:30 pm86 °FSprinkles. Broken clouds.8 mph75%29.80 "HgN/A
2:00 pm84 °FSprinkles. Broken clouds.9 mph84%29.83 "Hg5 mi
1:30 pm86 °FSprinkles. Broken clouds.7 mph75%29.83 "Hg5 mi
1:00 pm90 °FBroken clouds.6 mph67%29.86 "HgN/A
12:30 pm90 °FBroken clouds.5 mph67%29.86 "HgN/A
12:00 pm88 °FBroken clouds.6 mph70%29.89 "HgN/A
11:30 am88 °FBroken clouds.6 mph70%29.89 "HgN/A
11:00 am86 °FPartly sunny.3 mph75%29.89 "HgN/A
10:30 am84 °FPartly sunny.3 mph74%29.89 "HgN/A
10:00 am82 °FPartly sunny.2 mph79%29.89 "HgN/A
9:30 am81 °FPartly sunny.2 mph84%29.89 "HgN/A
9:00 am79 °FPartly sunny.2 mph89%29.89 "HgN/A
8:30 am77 °FPartly sunny.3 mph89%29.89 "HgN/A
8:00 am75 °FPartly sunny.3 mph94%29.89 "HgN/A
7:30 am75 °FPartly sunny.3 mph94%29.86 "HgN/A
7:00 am73 °FBroken clouds.No wind100%29.86 "HgN/A
6:30 am73 °FPartly cloudy.No wind100%29.86 "HgN/A
6:00 am73 °FPartly cloudy.No wind100%29.86 "HgN/A
5:30 am73 °FPartly cloudy.1 mph100%29.86 "HgN/A
5:00 am75 °FPartly cloudy.1 mph94%29.83 "HgN/A
4:30 am75 °FPartly cloudy.2 mph94%29.83 "HgN/A
4:00 am75 °FPartly cloudy.2 mph94%29.83 "HgN/A
3:30 am75 °FPartly cloudy.2 mph94%29.83 "HgN/A
3:00 am75 °FPartly cloudy.1 mph94%29.83 "HgN/A
2:30 am75 °FPartly cloudy.2 mph94%29.83 "HgN/A
2:00 am75 °FPartly cloudy.1 mph94%29.86 "HgN/A
1:30 am75 °FPartly cloudy.2 mph100%29.86 "HgN/A
1:00 am75 °FPartly cloudy.2 mph94%29.86 "HgN/A
12:30 am75 °FPartly cloudy.1 mph94%29.86 "HgN/A
12:00 am77 °FPartly cloudy.2 mph89%29.89 "HgN/A
Weather by CustomWeather, © 2017

See weather overviewHow to use our weather pages